This is the latest recevied weather packets stored in our database for station/object KC4GS-13. If no packets are shown the sender has not sent any weather packets the latest 10 day(s).
| Time | Temp. | Humidity | Pressure | Rain* | Wind** | Luminosity | Snow |
|---|---|---|---|---|---|---|---|
| 1787597177 | 35° C | 37% | 1016.3 hPa | 0 mm | - | 666 W/m² | - |
| 1787596873 | 35° C | 36% | 1016.5 hPa | 0 mm | - | 689 W/m² | - |
| 1787596570 | 35° C | 37% | 1016.5 hPa | 0 mm | - | 666 W/m² | - |
| 1787596264 | 34.44° C | 37% | 1016.7 hPa | 0 mm | - | 695 W/m² | - |
| 1787595961 | 34.44° C | 38% | 1016.8 hPa | 0 mm | - | 684 W/m² | - |
| 1787595656 | 34.44° C | 39% | 1016.8 hPa | 0 mm | - | 733 W/m² | - |
| 1787595352 | 34.44° C | 40% | 1016.7 hPa | 0 mm | - | 705 W/m² | - |
| 1787595051 | 33.89° C | 40% | 1016.7 hPa | 0 mm | - | 648 W/m² | - |
| 1787594746 | 34.44° C | 38% | 1016.5 hPa | 0 mm | - | 707 W/m² | - |
| 1787594445 | 34.44° C | 39% | 1016.7 hPa | 0 mm | - | 747 W/m² | - |
| 1787594139 | 34.44° C | 37% | 1017 hPa | 0 mm | - | 714 W/m² | - |
| 1787593834 | 33.89° C | 38% | 1016.8 hPa | 0 mm | - | 751 W/m² | - |
| 1787593529 | 33.89° C | 38% | 1016.9 hPa | 0 mm | - | 779 W/m² | - |
| 1787593225 | 33.33° C | 39% | 1017 hPa | 0 mm | - | 761 W/m² | - |
| 1787592919 | 33.33° C | 39% | 1017.1 hPa | 0 mm | - | 745 W/m² | - |
| 1787592614 | 33.33° C | 40% | 1017 hPa | 0 mm | - | 728 W/m² | - |
| 1787592308 | 33.33° C | 39% | 1017.2 hPa | 0 mm | - | 711 W/m² | - |
| 1787592004 | 32.78° C | 41% | 1017.1 hPa | 0 mm | - | 645 W/m² | - |
| 1787591698 | 32.78° C | 40% | 1017.3 hPa | 0 mm | - | 311 W/m² | - |
| 1787591394 | 32.78° C | 40% | 1017.1 hPa | 0 mm | - | 287 W/m² | - |
| 1787591089 | 32.78° C | 40% | 1017.2 hPa | 0 mm | - | 371 W/m² | - |
| 1787590785 | 32.78° C | 41% | 1017.3 hPa | 0 mm | - | 197 W/m² | - |
| 1787590480 | 32.78° C | 40% | 1017.2 hPa | 0 mm | - | 241 W/m² | - |
| 1787590176 | 32.78° C | 40% | 1016.9 hPa | 0 mm | - | 471 W/m² | - |
| 1787589871 | 32.78° C | 42% | 1017 hPa | 0 mm | - | 421 W/m² | - |
* Rain latest hour (hover to see other rain measurements)
** Current wind speed in m/s (hover to see current wind gust speed)